Location: Newark
(7.0858°N, 171.3717°E)
Time: 02:45:47
(UTC+00:00)

Transit 2A - Pass Details

Date: 29 November 2020
Orbit: 598 x 960 km, 66.7° (Epoch: 20 January)

Event Time Altitude Azimuth Distance (km) Brightness Sun altitude
Rises 05:10:31 0° 218° (SW) 3,565 10.6 14.0°
Reaches altitude 10° 05:13:12 10° 226° (SW) 2,651 10.5 13.4°
Maximum altitude 05:18:54 37° 291° (WNW) 1,446 8.2 12.1°
Drops below altitude 10° 05:24:39 10° 357° (N) 2,673 8.6 10.8°
Sets 05:27:24 0° 5° (N) 3,598 9.2 10.1°
